China Lake, CA

12:25 AM PDT on October 19, 2017 (GMT -0700)
China Lake NAWS

Weather History for KNID - November, 2013

Change the Weather History Date:

Thursday, November 7, 2013

  Actual Average Record
Temperature  
Mean Temperature 54 °F -  
Max Temperature 72 °F 65 °F 84 °F (2007)
Min Temperature 36 °F 41 °F 30 °F (2011)
Degree Days  
Heating Degree Days 11    
Growing Degree Days 4 (Base 50)    
Moisture  
Dew Point 14 °F    
Average Humidity 21    
Maximum Humidity 32    
Minimum Humidity 12    
Precipitation  
Precipitation 0.00 in - - ()
Sea Level Pressure  
Sea Level Pressure 30.18 in    
Wind  
Wind Speed 4 mph (SSW)    
Max Wind Speed 12 mph    
Max Gust Speed -    
Visibility 10 miles    
Events      
Averages and records for this station are not official NWS values.
T = Trace of Precipitation, MM = Missing Value Source: NWS Daily Summary

Daily Weather History Graph

Daily Weather History Graph

Search for Another Location

Airport or City:

Trip Planner

Search our weather history database for the weather conditions in past years. The results will help you decide how hot, cold, wet, or windy it might be!

Date:

Astronomy

Nov. 07, 2013 Rise Set
Actual Time 6:18 AM PST 4:49 PM PST
Civil Twilight 5:52 AM PST 5:16 PM PST
Nautical Twilight 5:21 AM PST 5:46 PM PST
Astronomical Twilight 4:51 AM PST 6:16 PM PST
Moon 10:29 AM PST (11/7) 9:07 PM PST (11/7)
Length of Visible Light 11h 24m
Length of Day
10h 30m
Waxing Crescent, 24% of the Moon is Illuminated
Nov 7
Waxing Crescent
Nov 9
First Quarter
Nov 17
Full
Nov 25
Last Quarter
Dec 2
New

Hourly Weather History & Observations

Time (PST) Temp. Windchill Dew Point Humidity Pressure Visibility Wind Dir Wind Speed Gust Speed Precip Events Conditions
12:56 AM 42.1 °F 36.6 °F 9.0 °F 26% 30.28 in 10.0 mi SSW 9.2 mph - N/A   Clear
1:56 AM 44.1 °F 40.1 °F 10.0 °F 25% 30.26 in 10.0 mi SSW 6.9 mph - N/A   Clear
2:56 AM 36.0 °F 33.3 °F 6.1 °F 29% 30.26 in 10.0 mi NW 3.5 mph - N/A   Clear
3:56 AM 37.0 °F - 6.1 °F 28% 30.27 in 10.0 mi Calm Calm - N/A   Clear
4:56 AM 39.9 °F 35.1 °F 10.0 °F 29% 30.26 in 10.0 mi SW 6.9 mph - N/A   Mostly Cloudy
5:56 AM 39.0 °F - 10.0 °F 30% 30.28 in 10.0 mi Calm Calm - N/A   Mostly Cloudy
6:56 AM 39.9 °F 36.7 °F 12.0 °F 32% 30.28 in 10.0 mi SE 4.6 mph - N/A   Mostly Cloudy
7:56 AM 48.9 °F - 12.9 °F 24% 30.29 in 10.0 mi Calm Calm - N/A   Mostly Cloudy
8:56 AM 55.0 °F - 12.9 °F 19% 30.27 in 10.0 mi West 3.5 mph - N/A   Mostly Cloudy
9:56 AM 59.0 °F - 12.9 °F 16% 30.27 in 10.0 mi NW 3.5 mph - N/A   Mostly Cloudy
10:56 AM 64.0 °F - 15.1 °F 15% 30.23 in 10.0 mi Calm Calm - N/A   Mostly Cloudy
11:56 AM 69.1 °F - 16.0 °F 13% 30.19 in 10.0 mi Calm Calm - N/A   Mostly Cloudy
12:56 PM 71.1 °F - 17.1 °F 13% 30.15 in 10.0 mi Calm Calm - N/A   Mostly Cloudy
1:56 PM 72.0 °F - 17.1 °F 12% 30.12 in 10.0 mi Calm Calm - N/A   Mostly Cloudy
2:56 PM 72.0 °F - 17.1 °F 12% 30.11 in 10.0 mi Variable 3.5 mph - N/A   Mostly Cloudy
3:56 PM 71.1 °F - 17.1 °F 13% 30.09 in 10.0 mi ENE 6.9 mph - N/A   Mostly Cloudy
4:56 PM 64.0 °F - 16.0 °F 16% 30.09 in 10.0 mi ESE 5.8 mph - N/A   Mostly Cloudy
5:56 PM 62.1 °F - 16.0 °F 17% 30.10 in 10.0 mi SW 5.8 mph - N/A   Mostly Cloudy
6:56 PM 54.0 °F - 14.0 °F 21% 30.11 in 10.0 mi South 6.9 mph - N/A   Mostly Cloudy
7:56 PM 57.0 °F - 16.0 °F 20% 30.09 in 10.0 mi South 11.5 mph - N/A   Mostly Cloudy
8:56 PM 54.0 °F - 16.0 °F 22% 30.09 in 10.0 mi South 6.9 mph - N/A   Scattered Clouds
9:56 PM 50.0 °F - 16.0 °F 26% 30.10 in 10.0 mi Calm Calm - N/A   Partly Cloudy
10:56 PM 48.0 °F - 15.1 °F 27% 30.09 in 10.0 mi Calm Calm - N/A   Clear
11:56 PM 44.1 °F - 14.0 °F 30% 30.08 in 10.0 mi Calm Calm - N/A   Clear